[[{"header":{"parameterUnit":"m.s-1","parameterCategory":1,"la1":30.2991,"la2":30.254,"lo1":-89.0895,"lo2":-89.0444,"dy":0.0017,"dx":0.0017,"nx":28,"ny":28,"refTime":"2024-05-18T21:00:00:Z","depth":0,"parameterNumber":2,"parameterNumberName":"U-component_of_WINDS"},"data":[0,0,0,0,0,0,0,0,0,0,0,0,0,0,0,0,0,0,0,0,0,0,0,0,0,0,0,0,0,0,0,0,0,0,0,0,0,0,0,0,0,0,0,0,0,0,0,0,0,0,0,0,0,0,0,0,0,0,2.7225,2.7227,0,2.7342,2.7343,2.7344,2.7317,2.7315,2.7312,2.731,2.743,2.7435,2.7441,0,0,0,0,0,0,0,0,0,0,0,0,0,2.698,2.6985,2.7225,2.7227,2.7228,2.7342,2.7343,2.7345,2.7317,2.7315,2.7312,2.7309,2.7429,2.7435,2.7441,0,0,0,0,0,0,0,0,0,0,0,0,0,2.7091,2.6986,2.7225,2.7228,2.723,2.7341,2.7343,2.7345,2.7318,2.7315,2.7311,2.7308,2.7426,2.7434,2.7442,2.7558,0,0,2.7466,2.747,0,0,0,0,0,0,0,0,2.7084,2.71,2.7226,2.7228,2.723,2.7311,2.7301,2.7417,2.7319,2.7284,2.731,2.7306,2.7393,2.7404,2.7433,2.7564,2.7569,2.7467,2.7472,2.7475,2.7477,0,0,0,0,0,0,0,2.7077,2.7094,2.7271,2.7228,2.723,2.7224,2.7236,2.7323,2.7356,2.7287,2.7285,2.73,2.7394,2.7426,2.7436,2.757,2.7467,2.7474,2.7479,2.7482,2.7802,2.7805,0,0,0,0,0,0,2.7067,2.7088,2.7268,2.7275,2.7147,2.7231,2.7245,2.7289,2.7355,2.7362,2.7302,2.7298,2.7414,2.7427,2.744,2.7579,2.7475,2.7482,2.7487,2.7798,2.7803,2.7807,0,0,0,0,0,0,2.7062,2.7084,2.7263,2.7181,2.7204,2.7239,2.7289,2.7293,2.7324,2.7367,2.7373,2.7328,2.7412,2.7429,2.7529,2.7583,2.7486,2.7493,2.7794,2.78,2.7805,2.7859,0,0,0,0,0,0,2.7055,2.7082,2.7126,2.7182,2.7208,2.735,2.7292,2.7297,2.7338,2.7333,2.7393,2.7399,2.741,2.7517,2.7537,2.7592,2.7499,2.7789,2.7796,2.7803,2.7853,2.7866,2.7878,0,0,0,0,0,2.7047,2.7137,2.7128,2.715,2.7264,2.7353,2.7368,2.7378,2.7342,2.7387,2.7415,2.7398,2.7574,2.7527,2.7549,2.7608,2.7785,2.7794,2.7802,2.7847,2.7864,2.7877,0,0,0,0,0,0,2.7086,2.7144,2.7135,2.7247,2.7295,2.7348,2.7404,2.7395,2.7454,2.7447,2.7458,2.7472,2.7574,2.7601,2.7548,2.7724,2.7675,2.7688,2.7702,2.7718,2.773,2.772,2.7506,0,0,0,0,0,2.7108,2.7175,2.7223,2.7316,2.7341,2.7369,2.7408,2.7412,2.7462,2.7483,2.7517,2.7567,2.7634,2.7678,2.7741,2.7858,2.787,2.7909,2.7921,2.7931,2.7942,2.8005,2.8022,2.7834,2.7834,2.7834,0,0,2.7153,2.7193,2.7235,2.7325,2.7363,2.7432,2.7386,2.7462,2.7513,2.7494,2.759,2.7618,2.7674,2.7783,2.7832,2.7809,2.7997,2.7942,2.795,2.7955,2.8015,2.8033,2.8049,2.784,2.7839,2.7838,0,0,2.7271,2.7309,2.739,2.7429,2.7487,2.7505,2.7525,2.758,2.7597,2.7694,2.7681,2.7743,2.7858,2.7899,2.7934,2.8069,2.8055,2.809,2.8154,2.8215,2.823,2.8243,2.829,2.8306,2.8101,2.8101,2.8101,0,2.732,2.7423,2.7434,2.751,2.755,2.7537,2.7619,2.7657,2.7733,2.7761,2.7734,2.7878,2.7915,2.8032,2.8065,2.8095,2.8118,2.8082,2.8227,2.824,2.8252,2.8297,2.8315,2.8105,2.8104,2.8104,2.8103,0,2.748,2.7553,2.7612,2.7685,2.7732,2.7812,2.7834,2.788,2.7881,2.7902,2.8001,2.8045,2.8117,2.8146,2.8147,2.8264,2.8247,2.8224,2.8174,2.8274,2.8316,2.8333,2.811,2.8108,2.8107,2.8106,0,0,2.7624,2.7703,2.7724,2.7757,2.7821,2.7877,2.7956,2.8027,2.8066,2.812,2.8186,2.8284,2.8263,2.8303,2.8309,2.8363,2.8466,2.8333,2.8334,2.8355,2.8596,2.8612,2.8631,2.8458,2.8461,2.8464,2.859,0,2.7746,2.7885,2.7897,2.8022,2.8088,2.8077,2.8146,2.8193,2.8215,2.8276,2.8301,2.8369,2.8336,2.8361,2.8414,2.8442,2.8514,2.8433,2.8519,2.8522,2.8503,2.8654,2.8671,2.8788,2.8607,2.861,2.8612,0,2.7906,2.7964,2.8096,2.815,2.8178,2.824,2.8306,2.8364,2.8417,2.8429,2.8475,2.8474,2.8556,2.8505,2.8618,2.8562,2.8599,2.8618,2.8623,2.8629,2.8571,2.8663,2.8826,2.8842,2.8638,2.8636,2.8634,0,2.7996,2.8107,2.82,2.8229,2.8295,2.8339,2.8368,2.8418,2.846,2.8518,2.8545,2.8612,2.8648,2.87,2.8717,2.8679,2.8829,2.878,2.8841,2.8841,2.8871,2.8869,2.904,2.8898,2.8898,2.8898,2.8897,0,2.813,2.8211,2.8241,2.8298,2.8388,2.8402,2.8491,2.8518,2.8563,2.8625,2.862,2.8679,2.8699,2.8761,2.8775,2.8865,2.8882,2.8894,2.8897,2.8894,2.8892,2.8916,2.8907,2.8902,2.8901,2.89,2.8899,0,2.8244,2.8269,2.8369,2.8423,2.8439,2.8503,2.855,2.8605,2.8627,2.8705,2.8725,2.8759,2.8832,2.8855,2.8943,2.8953,2.9058,2.9054,2.904,2.9039,2.9098,2.9092,2.929,2.9316,2.9158,2.916,2.9161,0,2.8327,2.8389,2.845,2.8491,2.8523,2.8589,2.8632,2.8649,2.8693,2.8759,2.8806,2.8878,2.8936,2.9053,2.9086,2.9153,2.915,2.9215,2.916,2.9155,2.9149,2.9144,2.915,2.9224,2.9226,2.9227,2.9229,0,2.8471,2.848,2.8541,2.8608,2.8659,2.8712,2.8763,2.8797,2.8821,2.8871,2.8945,2.8991,2.9081,2.9152,2.9221,2.9252,2.9244,2.9246,2.9263,2.926,2.9248,2.9253,2.9066,2.9241,2.924,2.9239,2.9238,2.9237,2.8571,2.8625,2.8677,2.8745,2.8786,2.8834,2.8888,2.8917,2.8979,2.9053,2.9059,2.9139,2.9192,2.9283,2.9317,2.938,2.9362,2.9387,2.9393,2.9399,2.9403,2.924,2.9393,2.9393,2.9393,2.9392,2.9392,0,2.8713,2.8746,2.8809,2.8881,2.8935,2.8924,2.898,2.9026,2.9096,2.9146,2.9203,2.9289,2.9358,2.9397,2.9467,2.9509,2.9508,2.9527,2.9523,2.953,2.9416,2.9393,2.9527,2.9527,2.9527,2.9527,2.9527,2.9527,2.8793,2.8883,2.8899,2.901,2.9042,2.912,2.9153,2.9197,2.9236,2.9332,2.9389,2.9415,2.946,2.9533,2.9596,2.9606,2.9631,2.9652,2.9659,2.9552,2.9538,2.9525,2.9503,2.9658,2.9658,2.9767,2.9768,2.9769]},{"header":{"parameterUnit":"m.s-1","parameterCategory":1,"la1":30.2991,"la2":30.254,"lo1":-89.0895,"lo2":-89.0444,"dy":0.0017,"dx":0.0017,"nx":28,"ny":28,"refTime":"2024-05-18T21:00:00:Z","depth":0,"parameterNumber":3,"parameterNumberName":"V-component_of_WINDS"},"data":[0,0,0,0,0,0,0,0,0,0,0,0,0,0,0,0,0,0,0,0,0,0,0,0,0,0,0,0,0,0,0,0,0,0,0,0,0,0,0,0,0,0,0,0,0,0,0,0,0,0,0,0,0,0,0,0,0,0,2.1835,2.1836,0,2.1977,2.1979,2.198,2.1966,2.1964,2.1962,2.196,2.2109,2.2115,2.2121,0,0,0,0,0,0,0,0,0,0,0,0,0,2.1553,2.1558,2.1834,2.1836,2.1838,2.1977,2.1979,2.1981,2.1967,2.1964,2.1961,2.1959,2.2107,2.2114,2.2122,0,0,0,0,0,0,0,0,0,0,0,0,0,2.1684,2.156,2.1834,2.1848,2.185,2.1976,2.1979,2.1981,2.1967,2.1964,2.1961,2.1957,2.2105,2.2114,2.2123,2.2246,0,0,2.2151,2.2154,0,0,0,0,0,0,0,0,2.1676,2.1694,2.1844,2.1847,2.185,2.195,2.1935,2.207,2.1968,2.1923,2.196,2.1956,2.2059,2.2072,2.2106,2.2253,2.2259,2.2151,2.2157,2.2161,2.2163,0,0,0,0,0,0,0,2.1667,2.1688,2.1891,2.1846,2.185,2.1848,2.1862,2.196,2.2008,2.1927,2.1926,2.1943,2.206,2.2098,2.211,2.2262,2.2151,2.2159,2.2165,2.2168,2.2517,2.2521,0,0,0,0,0,0,2.1654,2.168,2.1886,2.1895,2.1753,2.1855,2.1872,2.1922,2.2007,2.2017,2.1945,2.1942,2.2084,2.2099,2.2115,2.2266,2.2161,2.2169,2.2174,2.2514,2.2518,2.2522,0,0,0,0,0,0,2.1648,2.1673,2.1881,2.1788,2.1814,2.1864,2.192,2.1926,2.1963,2.2021,2.203,2.1974,2.2082,2.2102,2.2213,2.227,2.2173,2.2182,2.2509,2.2515,2.252,2.2567,0,0,0,0,0,0,2.164,2.1671,2.1717,2.1789,2.1819,2.1976,2.1923,2.1931,2.1979,2.1975,2.2051,2.206,2.2081,2.22,2.2222,2.2281,2.2189,2.2504,2.2512,2.2518,2.2561,2.2574,2.2585,0,0,0,0,0,2.163,2.1726,2.172,2.1745,2.1878,2.1979,2.1997,2.2017,2.1983,2.2031,2.2068,2.2058,2.226,2.2211,2.2237,2.2299,2.2501,2.251,2.2518,2.2555,2.2571,2.2585,0,0,0,0,0,0,2.1661,2.1735,2.173,2.185,2.1909,2.1977,2.2038,2.2033,2.2103,2.2097,2.212,2.2137,2.225,2.2285,2.223,2.2423,2.2376,2.239,2.2396,2.2412,2.2423,2.2413,2.2196,0,0,0,0,0,2.1681,2.1756,2.1818,2.1918,2.1948,2.1988,2.2033,2.2043,2.2105,2.213,2.2175,2.2236,2.2314,2.2364,2.2439,2.2565,2.2583,2.2621,2.2633,2.2642,2.2655,2.2725,2.2744,2.2551,2.255,2.255,0,0,2.1725,2.1775,2.1821,2.1926,2.1972,2.205,2.2009,2.2093,2.2152,2.2143,2.2251,2.2286,2.2356,2.2476,2.2531,2.2509,2.2712,2.2653,2.2661,2.2668,2.2736,2.2754,2.2771,2.2556,2.2555,2.2554,0,0,2.1845,2.189,2.1979,2.2026,2.2096,2.2122,2.2143,2.2212,2.2235,2.2343,2.2339,2.2409,2.2542,2.2592,2.2635,2.2773,2.2767,2.2797,2.2861,2.2929,2.2944,2.2958,2.3009,2.3027,2.2809,2.2809,2.2809,0,2.1891,2.2008,2.2026,2.2111,2.2158,2.2152,2.2243,2.2288,2.238,2.2413,2.2386,2.2553,2.2599,2.2731,2.2765,2.2799,2.2825,2.2789,2.2941,2.2954,2.2967,2.3016,2.3035,2.2812,2.2812,2.2812,2.2811,0,2.2061,2.2142,2.2206,2.2293,2.2347,2.2435,2.2467,2.252,2.2526,2.2555,2.2666,2.2721,2.2807,2.2839,2.2845,2.2972,2.2956,2.2935,2.2889,2.2989,2.3035,2.3054,2.2817,2.2816,2.2815,2.2814,0,0,2.2205,2.2301,2.2324,2.2364,2.2441,2.2505,2.2592,2.2675,2.272,2.2783,2.2859,2.2971,2.2952,2.3,2.3013,2.3073,2.318,2.3044,2.3046,2.3069,2.3324,2.3341,2.3362,2.3176,2.3179,2.3182,2.3319,0,2.2334,2.2488,2.2507,2.2645,2.2721,2.2716,2.2793,2.2849,2.2879,2.2948,2.2981,2.306,2.3028,2.3058,2.3117,2.3155,2.3232,2.3145,2.3248,2.3251,2.3232,2.3386,2.3404,2.353,2.3337,2.334,2.3342,0,2.2505,2.2572,2.2717,2.2784,2.2816,2.2885,2.2962,2.3028,2.3092,2.3109,2.3163,2.3168,2.326,2.3209,2.3337,2.3277,2.332,2.3345,2.335,2.3362,2.3304,2.3403,2.3571,2.359,2.3371,2.3368,2.3366,0,2.2597,2.2723,2.2827,2.2861,2.2941,2.2989,2.3025,2.3085,2.3134,2.3202,2.3234,2.3313,2.3356,2.3417,2.3443,2.3403,2.357,2.352,2.3588,2.3588,2.3625,2.3623,2.3803,2.365,2.365,2.365,2.3649,0,2.2739,2.2829,2.2869,2.2933,2.3034,2.3054,2.3154,2.3188,2.3241,2.3313,2.3313,2.338,2.341,2.3482,2.3503,2.3607,2.3626,2.3643,2.3648,2.3644,2.3642,2.3674,2.3666,2.3655,2.3654,2.3653,2.3652,0,2.2859,2.289,2.3003,2.3069,2.3088,2.3159,2.3216,2.3279,2.3307,2.3397,2.3419,2.3464,2.3549,2.3581,2.3684,2.3699,2.3819,2.3816,2.3797,2.3799,2.3865,2.3859,2.4074,2.4104,2.393,2.3931,2.3932,0,2.2949,2.3018,2.3091,2.3138,2.3175,2.3251,2.3301,2.3324,2.3376,2.3454,2.3507,2.3591,2.366,2.3796,2.3839,2.3918,2.3918,2.3988,2.393,2.3924,2.3921,2.3917,2.3924,2.3999,2.4001,2.4002,2.4003,0,2.3105,2.3117,2.3187,2.3264,2.3323,2.3384,2.3444,2.3483,2.3515,2.3574,2.366,2.3713,2.3818,2.3903,2.3984,2.4022,2.4019,2.4021,2.4041,2.4038,2.4025,2.4035,2.3828,2.4016,2.4015,2.4014,2.4013,2.4013,2.3214,2.3275,2.3336,2.3415,2.3462,2.3518,2.358,2.3616,2.3688,2.3775,2.3784,2.3877,2.394,2.4049,2.409,2.4164,2.4145,2.4174,2.4182,2.4189,2.4195,2.4012,2.4179,2.4178,2.4178,2.4178,2.4178,0,2.3371,2.341,2.3482,2.3565,2.3628,2.3618,2.3683,2.3737,2.3818,2.3876,2.3944,2.4043,2.4125,2.4173,2.4255,2.4305,2.4306,2.4326,2.4324,2.4333,2.4206,2.4181,2.4324,2.4324,2.4324,2.4324,2.4324,2.4324,2.346,2.3563,2.3582,2.3709,2.3748,2.3838,2.3877,2.3929,2.3975,2.4086,2.4153,2.4184,2.4239,2.4325,2.4399,2.4412,2.4443,2.4465,2.4476,2.4357,2.4342,2.4327,2.4304,2.4471,2.4471,2.4597,2.4598,2.4599]}]]